Content
SEND FEEDBACK

Daily
Averages
Monthly
Summary
Canada

BANFF, ALBERTA


Home > North America > Canada > Alberta
Elevation: 4583 feet     Latitude: 51 11N     Longitude: 115 34W

WEATHER
 
SELECT A DAY
Number of Records: 132,517;   Date Range: 1/1/95 - 9/16/14
 
SHARE

PRINT THIS DATA

[ ← Previous Day ]
WEATHER ALMANAC - FEBRUARY 12, 2013
[ Next Day → ]
[ °C ]   °F
Weather ElementAverageHighLow
Temperature32 °F36.9 °F (2:00 pm)28.2 °F (6:00 am)
Dewpoint18.4 °F23.9 °F (10:00 pm)14 °F (1:00 am)
Humidity57.7 %74 % (10:00 pm)43 % (2:00 pm)
Barometer29.95 in30.05 in (6:00 am)29.77 in (11:00 pm)
Wind Speed8.1 mph13.8 mph (2:00 pm)
Wind Gust27.6 mph (2:00 pm)
Weather ElementAverage
Wind DirectionWSW (248.7 °)

Weather ElementTotal
Precipitation---
Heating Degree Days32.5 (Base 65)
Averaged from 23 records on February 12, 2013
WEATHER CONDITIONS BREAKOUT
WIND DIRECTION BREAKOUT
WEATHER BY HOUR - FEBRUARY 12, 2013
[ °C ]   °F
Local TimeTemperatureDewpointHumidityBarometerVisibilityWind DirectionWind SpeedGust SpeedPrecipitationEventsConditions
1:00 AM29.8 °F14.0 °F52 %30.00 inWSW (250°)5.8 mph
2:00 AM30.2 °F15.3 °F54 %30.01 inWest (260°)6.9 mph
3:00 AM29.7 °F16.2 °F57 %30.02 inWSW (240°)6.9 mph
4:00 AM29.3 °F17.1 °F60 %30.03 inWSW (240°)5.8 mph
5:00 AM29.7 °F18.7 °F64 %30.04 inSW (230°)6.9 mph
6:00 AM28.2 °F18.0 °F65 %30.05 inWSW (250°)5.8 mph
7:00 AM28.2 °F18.0 °F65 %30.05 inWSW (250°)5.8 mph
8:00 AM28.6 °F18.1 °F65 %30.04 inWSW (250°)5.8 mph
9:00 AM29.1 °F18.5 °F65 %30.04 inSW (220°)5.8 mph
10:00 AM29.7 °F17.8 °F61 %30.03 inWSW (240°)8.1 mph
11:00 AM34.0 °F16.0 °F48 %29.99 inWSW (240°)9.2 mph
12:00 PM34.5 °F16.9 °F49 %29.98 inWSW (240°)8.1 mph18.4 mph
1:00 PM36.3 °F16.0 °F44 %29.95 inWSW (240°)9.2 mph18.4 mph
2:00 PM36.9 °F16.2 °F43 %29.93 inWSW (240°)13.8 mph27.6 mph
3:00 PM36.3 °F17.6 °F47 %29.91 inWSW (240°)10.4 mph19.6 mph
4:00 PM34.3 °F19.8 °F55 %29.90 inWest (260°)11.5 mph21.9 mph
5:00 PM33.4 °F20.8 °F60 %29.89 inWSW (240°)11.5 mph24.2 mph
6:00 PM33.4 °F19.9 °F58 %29.88 inWSW (250°)8.1 mph
7:00 PM33.1 °F20.5 °F60 %29.85 inWest (270°)8.1 mph
8:00 PM34.0 °F19.9 °F56 %29.82 inWest (260°)8.1 mph18.4 mph
9:00 PM32.9 °F21.9 °F64 %29.82 inWest (260°)9.2 mph
10:00 PM31.5 °F23.9 °F74 %29.79 inWest (260°)6.9 mph
11:00 PM33.6 °F21.2 °F60 %29.77 inWNW (290°)9.2 mph18.4 mph
Hourly data recorded from CWZG, located miles away from Banff, Alberta







STORIES FROM OUR PARTNERS